Le nostre stazioni meteo in Italia

Pubblicità
Il mio iltempo24.it
Gioia Del Colle, Italia (16312): Temperatura & dewpoint: 03.04.2020 18:00:00 - 09.04.2020 18:00:00 (CEST)Gioia Del Colle, Italia (16312): velocità del vento: 03.04.2020 18:00:00 - 09.04.2020 18:00:00 (CEST)Gioia Del Colle, Italia (16312): direzione del vento: 03.04.2020 18:00:00 - 09.04.2020 18:00:00 (CEST)Gioia Del Colle, Italia (16312): reduced air pressure: 03.04.2020 18:00:00 - 09.04.2020 18:00:00 (CEST)Gioia Del Colle, Italia (16312): visibility: 03.04.2020 18:00:00 - 09.04.2020 18:00:00 (CEST)
Data & Tempo tt [°C] td [°C] ff [km/h] ff [kn] dd ppp [hPa] vv [km]
09.04.2020 18:00:00 - - - - - - -
09.04.2020 17:00:00 16,2 -7,4 16 9 N 1019,0 12
09.04.2020 16:00:00 17,0 -6,0 16 9 N - 10
09.04.2020 15:00:00 17,0 -4,0 18 10 N - 10
09.04.2020 14:00:00 17,0 -1,6 15 8 N 1019,9 10
09.04.2020 13:00:00 16,0 1,0 15 8 N - 10
09.04.2020 12:00:00 16,0 1,0 15 8 N - 10
09.04.2020 11:00:00 14,6 0,8 13 7 N 1021,1 10
09.04.2020 10:00:00 13,0 1,0 15 8 N - 10
09.04.2020 09:00:00 12,0 2,0 13 7 N - 10
09.04.2020 08:00:00 5,6 3,8 5 3 NNE 1021,8 10
09.04.2020 07:00:00 5,0 3,0 4 2 NNE - 10
09.04.2020 06:00:00 5,0 3,0 2 1 - - 10
09.04.2020 05:00:00 6,0 4,0 9 5 NNO 1021,6 10
09.04.2020 04:00:00 6,0 3,0 11 6 NNO - 10
09.04.2020 03:00:00 6,0 3,0 9 5 N - 10
09.04.2020 02:00:00 5,8 2,1 9 5 NNO 1023,0 10
09.04.2020 01:00:00 5,0 0,0 5 3 NNO - 10
09.04.2020 00:00:00 5,0 0,0 2 1 N - 10
08.04.2020 23:00:00 6,2 -0,1 4 2 N 1023,0 10
08.04.2020 22:00:00 8,0 -1,0 4 2 NNO - 10
08.04.2020 21:00:00 9,0 -2,0 8 4 NO - 10
08.04.2020 20:00:00 11,2 -5,3 8 4 NNO 1022,0 10
08.04.2020 19:00:00 13,0 -7,0 11 6 N - 10
08.04.2020 18:00:00 15,0 -6,0 15 8 N - 10
08.04.2020 17:00:00 15,8 -5,9 21 11 N 1021,4 10
08.04.2020 16:00:00 16,0 -3,0 16 9 NNE - 10
08.04.2020 15:00:00 16,0 -1,0 16 9 N - 10
08.04.2020 14:00:00 15,8 4,5 15 8 N 1022,4 10
08.04.2020 13:00:00 15,0 6,0 16 9 NNE - 10
08.04.2020 12:00:00 14,0 7,0 16 9 N - 10
08.04.2020 11:00:00 13,2 7,7 21 11 NNE 1024,1 10
08.04.2020 10:00:00 12,0 8,0 22 12 NNE - 10
08.04.2020 09:00:00 11,0 6,0 15 8 N - 10
08.04.2020 08:00:00 8,8 7,2 9 5 NNO 1025,2 10
08.04.2020 07:00:00 6,0 6,0 9 5 N - 8
08.04.2020 06:00:00 8,0 8,0 9 5 NNE - 0,5
08.04.2020 05:00:00 8,4 8,4 8 4 N 1025,2 0,7
08.04.2020 04:00:00 8,0 8,0 16 9 N - 0,5
08.04.2020 03:00:00 9,0 9,0 15 8 NNO - 1,8
08.04.2020 02:00:00 8,0 7,7 15 8 NNO 1025,9 2,0
08.04.2020 01:00:00 5,0 4,0 4 2 NNO - 10
08.04.2020 00:00:00 6,0 3,0 11 6 ONO - 10
07.04.2020 23:00:00 7,4 1,0 9 5 NO 1026,3 10
07.04.2020 22:00:00 8,0 -1,0 5 3 NO - 10
07.04.2020 21:00:00 10,0 -1,0 4 2 N - 10
07.04.2020 20:00:00 11,0 -1,4 11 6 N 1025,3 10
07.04.2020 19:00:00 13,0 -1,0 15 8 N - 10
07.04.2020 18:00:00 14,0 0,0 21 11 NNE - 10
07.04.2020 17:00:00 15,0 1,5 21 11 NNE 1024,4 10
07.04.2020 16:00:00 15,0 1,0 18 10 NNE - 10
07.04.2020 15:00:00 15,0 3,0 21 11 NNE - 10
07.04.2020 14:00:00 15,0 0,8 26 14 NNE 1024,7 10
07.04.2020 13:00:00 15,0 1,0 24 13 NNE - 10
07.04.2020 12:00:00 15,0 2,0 26 14 NNE - 10
07.04.2020 11:00:00 14,0 5,9 24 13 NNE 1024,8 10
07.04.2020 10:00:00 13,0 8,0 26 14 N - 10
07.04.2020 09:00:00 11,0 7,0 16 9 N - 10
07.04.2020 08:00:00 9,0 4,0 15 8 NO 1025,0 10
07.04.2020 07:00:00 9,0 4,0 13 7 NO - 10
07.04.2020 06:00:00 9,0 6,0 13 7 NNO - 10
07.04.2020 05:00:00 7,8 5,4 13 7 NNO 1025,1 10
07.04.2020 04:00:00 8,0 3,0 13 7 NNO - 10
07.04.2020 03:00:00 8,0 3,0 9 5 NO - 10
07.04.2020 02:00:00 9,0 2,3 11 6 N 1024,8 10
07.04.2020 01:00:00 8,0 4,0 9 5 N - 10
07.04.2020 00:00:00 9,0 6,0 8 4 N - 10
06.04.2020 23:00:00 8,8 6,9 11 6 NNO 1024,4 10
06.04.2020 22:00:00 9,0 7,0 9 5 NO - 10
06.04.2020 21:00:00 11,0 6,0 5 3 N - 10
06.04.2020 20:00:00 12,6 1,6 11 6 N 1022,7 10
06.04.2020 19:00:00 14,0 1,0 9 5 NNE - 10
06.04.2020 18:00:00 15,0 1,0 16 9 NNE - 10
06.04.2020 17:00:00 15,6 1,4 21 11 NE 1022,1 10
06.04.2020 16:00:00 16,0 1,0 22 12 NE - 10
06.04.2020 15:00:00 16,0 2,0 21 11 NNE - 10
06.04.2020 14:00:00 16,2 4,0 16 9 ENE 1022,0 10
06.04.2020 13:00:00 16,0 4,0 22 12 NE - 10
06.04.2020 12:00:00 15,0 4,0 21 11 NE - 10
06.04.2020 11:00:00 14,0 2,6 22 12 ENE 1021,7 10
06.04.2020 10:00:00 14,0 5,0 18 10 ENE - 10
06.04.2020 09:00:00 11,0 8,0 11 6 N - 8
06.04.2020 08:00:00 9,0 6,6 11 6 N 1021,2 8
06.04.2020 07:00:00 9,0 8,0 11 6 N - 8
06.04.2020 06:00:00 8,0 8,0 9 5 NNO - 8
06.04.2020 05:00:00 8,0 8,0 16 9 ONO 1019,1 10
06.04.2020 04:00:00 8,0 8,0 15 8 ONO - 10
06.04.2020 03:00:00 8,0 6,0 11 6 NO - 10
06.04.2020 02:00:00 8,8 5,5 11 6 ONO 1019,6 10
06.04.2020 01:00:00 9,0 5,0 15 8 NNO - 10
06.04.2020 00:00:00 9,0 5,0 13 7 N - 10
05.04.2020 23:00:00 10,0 5,8 15 8 N 1018,8 10
05.04.2020 22:00:00 10,0 6,0 11 6 NNO - 10
05.04.2020 21:00:00 10,0 6,0 11 6 N - 10
05.04.2020 20:00:00 11,0 4,7 18 10 N 1017,5 10
05.04.2020 19:00:00 12,0 5,0 18 10 NNE - 10
05.04.2020 18:00:00 12,0 3,0 24 13 NNE - 10
05.04.2020 17:00:00 13,0 1,7 24 13 N 1015,2 10
05.04.2020 16:00:00 14,0 2,0 28 15 NNE - 10
05.04.2020 15:00:00 14,0 4,0 24 13 N - 10
05.04.2020 14:00:00 13,0 5,4 16 9 N 1014,8 10
05.04.2020 13:00:00 13,0 5,0 16 9 NNE - 10
05.04.2020 12:00:00 14,0 6,0 21 11 N - 10
05.04.2020 11:00:00 13,0 6,6 16 9 N 1013,3 10
05.04.2020 10:00:00 13,0 8,0 15 8 N - 8
05.04.2020 09:00:00 11,0 8,0 15 8 NNO - 8
05.04.2020 08:00:00 10,0 6,9 18 10 NO 1013,0 8
05.04.2020 07:00:00 9,0 7,0 18 10 NO - 8
05.04.2020 06:00:00 9,0 6,0 18 10 NO - 8
05.04.2020 05:00:00 8,8 6,1 21 11 NO 1012,2 8
05.04.2020 04:00:00 9,0 7,0 18 10 NO - 8
05.04.2020 03:00:00 9,0 7,0 18 10 NO - 8
05.04.2020 02:00:00 8,0 7,1 15 8 NO 1013,4 8
05.04.2020 01:00:00 8,0 7,0 13 7 NO - 10
05.04.2020 00:00:00 9,0 5,0 16 9 NO - 10
04.04.2020 23:00:00 10,0 4,2 22 12 NO 1013,0 10
04.04.2020 22:00:00 11,0 3,0 28 15 NO - 10
04.04.2020 21:00:00 11,0 -2,0 28 15 NO - 10
04.04.2020 20:00:00 11,0 -2,8 31 17 NNO 1011,9 10
04.04.2020 19:00:00 12,0 -4,0 24 13 NNO - 10
04.04.2020 18:00:00 12,0 -5,0 28 15 NNO - 10
04.04.2020 17:00:00 13,0 -3,3 35 19 N 1010,9 10
04.04.2020 16:00:00 13,0 -1,0 31 17 NNO - 10
04.04.2020 15:00:00 13,0 0,0 28 15 NNO - 10
04.04.2020 14:00:00 14,0 2,6 29 16 N 1011,2 10
04.04.2020 13:00:00 14,0 3,0 28 15 NNO - 10
04.04.2020 12:00:00 13,0 4,0 29 16 NNO - 10
04.04.2020 11:00:00 12,6 5,3 24 13 NNO 1011,7 10
04.04.2020 10:00:00 11,0 6,0 28 15 NNO - 10
04.04.2020 09:00:00 9,0 5,0 28 15 NNO - 10
04.04.2020 08:00:00 7,8 3,7 24 13 NO 1011,9 10
04.04.2020 07:00:00 7,0 3,0 21 11 NNO - 10
04.04.2020 06:00:00 7,0 2,0 22 12 NNO - 10
04.04.2020 05:00:00 6,6 4,4 24 13 NNO 1012,2 10
04.04.2020 04:00:00 7,0 5,0 21 11 NNO - 10
04.04.2020 03:00:00 6,0 4,0 18 10 NNO - 10
04.04.2020 02:00:00 6,4 4,7 15 8 N 1012,6 10
04.04.2020 01:00:00 6,0 5,0 11 6 NNO - 10
04.04.2020 00:00:00 6,0 6,0 9 5 NNO - 10
03.04.2020 23:00:00 6,4 3,9 11 6 N 1012,6 10
03.04.2020 22:00:00 7,0 4,0 13 7 N - 10
03.04.2020 21:00:00 7,0 3,0 13 7 N - 10
03.04.2020 20:00:00 8,4 2,6 9 5 NNE 1011,9 10
03.04.2020 19:00:00 9,0 2,0 15 8 NNE - 10
03.04.2020 18:00:00 10,0 1,0 15 8 ENE - 10

tt = Temperatura
td = dewpoint
ff = velocità del vento
dd = direzione del vento
ppp = reduced air pressure
vv = visibility

Stazioni seguenti

WeatherPro
AMSI
MeteoEarth